QZS-2 (MICHIBIKI-2) (42738 NORAD) Tracking and Keplerian Element Data

This shows tracking and keplerian element data for the satellite.

Feedback or suggestion? Click here.




ElementValue
Catalog42738
NameQZS-2 (MICHIBIKI-2)
Epoch Orbit1951
Epoch Day269.84840943
Epoch Year2022
RAAN262.7355
Inclination41.6096
Eccentricity0.0749546
Argument of Perigee270.3952
Mean Anonmoly277.8408
Mean Motion1.00259823
Decay Rate-1.5E-06
L11 42738U 17028A 22269.84840943 -.00000150 00000+0 00000+0 0 9998
L22 42738 41.6096 262.7355 0749546 270.3952 277.8408 1.00259823 19517

Live tracking and technical data element details for QZS-2 (MICHIBIKI-2) (NORAD 42738). QZS-2 (MICHIBIKI-2) can be tracked NOW for your location showing map with azimuth and elevation plus other details from your city location.

Track the satellite on the map from your city or location and see movement details for azimuth, elevation, latitude, longitude, range, height, and movement on the map or in text.







IsCatalogInMostPopularTable: catalog: 42738, numindb: 677
Update: records affected: 1



GetName: 42738 QZS-2 (MICHIBIKI-2)

Hit Count: updated at: Wed, 28 Sep 2022 23:30:53 GMT